Location: ?????
(37.7324°N, 23.9257°E)
Time: 08:27:04
(UTC+00:00)

Cosmos 1943 - Pass Details

Date: 29 November 2020
Orbit: 832 x 851 km, 71.0° (Epoch: 17 January)

Event Time Altitude Azimuth Distance (km) Brightness Sun altitude
Exits shadow 03:36:07 37° 293° (WNW) 1,299 3.6 -20.0°
Maximum altitude 03:37:37 45° 254° (WSW) 1,142 3.5 -19.7°
Drops below altitude 10° 03:42:59 10° 183° (S) 2,465 5.7 -18.6°
Sets 03:45:31 0° 177° (S) 3,395 6.6 -18.2°
